Simultaneous Nadir Overpasses (SNOs) Predictions

Prediction of SNOs between FY3D and AQUA Satellite Orbit:

Table of predicted SNOs for the next 14.0 days since TLE Epoch: 4/27/2019
Index Date (FY3D) Time (FY3D) Lat,Lon (FY3D) SZA (FY3D ) Date (AQUA) Time (AQUA) Lat,Lon (AQUA) SZA (AQUA ) Distance(km) Time Diff (sec)
1 04/27/2019 10:06:18 -66.75, 71.63 86.62 04/27/2019 10:07:19 -66.75, 71.61 86.68 0.89 61
2 04/27/2019 10:56:03 69.89,-116.99 90.12 04/27/2019 10:55:48 69.90,-116.94 90.12 2.06 15
3 04/30/2019 02:22:40 -67.06,-172.14 87.76 04/30/2019 02:23:42 -67.05,-172.19 87.81 2.08 62
4 04/30/2019 03:12:27 70.08, -0.82 89.09 04/30/2019 03:12:13 70.09, -0.80 89.10 0.77 14
5 05/02/2019 18:39:23 -66.22, -57.19 87.71 05/02/2019 18:40:25 -66.23, -57.17 87.79 1.15 62
6 05/02/2019 19:28:49 70.38, 115.52 87.98 05/02/2019 19:28:36 70.38, 115.50 88.00 0.80 13
7 05/05/2019 10:55:42 -66.64, 59.14 88.90 05/05/2019 10:56:45 -66.63, 59.13 88.96 0.49 63
8 05/05/2019 11:45:27 69.77,-129.53 87.85 05/05/2019 11:45:14 69.78,-129.47 87.84 2.47 13
9 05/08/2019 03:12:23 -65.90, 174.23 88.88 05/08/2019 03:13:26 -65.91, 174.28 88.96 2.29 63
10 05/08/2019 04:01:47 70.17, -13.05 86.70 05/08/2019 04:01:35 70.17, -13.04 86.71 0.41 12
11 05/10/2019 19:28:41 -66.42, -69.34 90.10 05/10/2019 19:29:45 -66.42, -69.33 90.17 0.22 64
12 05/10/2019 20:18:07 70.56, 103.45 85.59 05/10/2019 20:17:56 70.55, 103.40 85.61 1.93 11




NCC Satellite Simultaneous Nadir Overpasses (SNOs) Prediction Service
